Weather in Lermontovo

Russia / Penza Oblast     52°59′33″N   43°39′30″E
temp.,
°C
wind,
m/s
gust,
m/s
humid.,
%
clouds,
%
prec.,
mm/h
press.,
hPa
HPBL,
m
2 july, sat
sat200:00+10n112087100 5.5 1012820
03:00+9nne817916 5.6 1013578
06:00+11nne7149365 0.0 1014558
09:00+16nne9117428 0.0 10141026
12:00+19nne913685 0.6 10131540
15:00+20nne912645 1.3 10131548
18:00+18nne812683 0.3 10131075
21:00+15nne513745 0.3 1014350
3 july, sun
sun300:00+12n4107859 0.0 1014165
03:00+11n37785 0.0 101499
06:00+14nnw387895 0.0 1013224
09:00+17n357276 0.0 1013347
12:00+21n35595 0.0 10131093
15:00+22n56594 0.6 10121469
18:00+21n347352 0.5 1012437
21:00+17n33866 1.1 101335
4 july, mon
mon400:00+14nne36945 0.0 1013100
03:00+13n48966 0.0 1013172
06:00+14n510923 0.0 1014352
09:00+18nne686832 0.0 10151005
12:00+21nne5752100 0.0 10151746
15:00+22n57487 0.0 10152153
18:00+21nw366112 0.0 1014435
21:00+17n337466 0.0 101527
5 july, tue
tue500:00+17ne2270100 0.0 101620
03:00+14nne118042 0.0 101610
06:00+17nne237554 0.0 101789
09:00+21ne33575 0.0 1017639
12:00+23ne23470 0.0 10171545
15:00+24nne344716 0.0 10171844
18:00+23ene23595 0.0 1017315
21:00+18ese226389 0.0 101717
6 july, wed
wed600:00+16s226446 0.0 101819
03:00+17s3362100 0.0 101868
06:00+18s2474100 0.0 1018130
09:00+22s236485 0.0 1018469
12:00+26ssw335111 0.0 10181316
15:00+27sw334699 0.0 10172203
18:00+26ssw356043 0.0 1016178
21:00+19w35915 0.1 101898